Location: Buisson
(44.2787°N, 4.9969°E)
Time: 01:30:31
(UTC+00:00)

Spot 4 Rocket - Pass Details

Date: 18 April 2021
Orbit: 777 x 780 km, 98.7° (Epoch: 07 May)

Event Time Altitude Azimuth Distance (km) Brightness Sun altitude
Rises 03:16:49 0° 13° (NNE) 3,276 8.0 -16.1°
Reaches altitude 10° 03:19:09 10° 14° (NNE) 2,344 7.2 -15.8°
Maximum altitude 03:24:20 89° 287° (WNW) 787 4.0 -15.0°
Enters shadow 03:29:11 12° 196° (SSW) 2,213 6.0 -14.3°
